Weather History for Torrington, WY

Change the Weather History Date:

Wednesday, March 20, 2013

  Actual Average Record
Temperature  
Mean Temperature 34 °F 39 °F  
Max Temperature 58 °F 53 °F 75 °F (2007)
Min Temperature 10 °F 25 °F 10 °F (2013)
Degree Days  
Heating Degree Days 31 26  
Month to date heating degree days 529 570  
Since 1 July heating degree days 5142 5414  
Cooling Degree Days 0 0  
Month to date cooling degree days 0 0  
Year to date cooling degree days 0 0  
Moisture  
Dew Point 20 °F    
Average Humidity 55    
Maximum Humidity 92    
Minimum Humidity 17    
Precipitation  
Precipitation 0.01 in 0.03 in 0.04 in (2006)
Month to date precipitation 0.11 0.37  
Year to date precipitation 0.50 0.97  
Sea Level Pressure  
Sea Level Pressure 30.03 in    
Wind  
Wind Speed 10 mph (SSE)    
Max Wind Speed 33 mph    
Max Gust Speed 44 mph    
Visibility 10 miles    
Events Rain    
T = Trace of Precipitation, MM = Missing Value Source: NWS Daily Summary

Daily Weather History Graph

Daily Weather History Graph

Search for Another Location

Airport:

Trip Planner

Search our weather history database for the weather conditions in past years. The results will help you decide how hot, cold, wet, or windy it might be!

Date:

Astronomy

Mar. 20, 2013 Rise Set
Actual Time 6:59 AM MDT 7:09 PM MDT
Civil Twilight 6:31 AM MDT 7:37 PM MDT
Nautical Twilight 5:58 AM MDT 8:09 PM MDT
Astronomical Twilight 5:25 AM MDT 8:43 PM MDT
Moon 12:41 PM MDT (3/20) 2:46 AM MDT (3/20)
Length of Visible Light 13h 05m
Length of Day
12h 09m
First Quarter, 60% of the Moon is Illuminated
Mar 20
First Quarter
Mar 27
Full
Apr 2
Last Quarter
Apr 10
New
Apr 18
First Quarter

Hourly Weather History & Observations

Time (MDT) Temp. Windchill Dew Point Humidity Pressure Visibility Wind Dir Wind Speed Gust Speed Precip Events Conditions
12:53 AM 19.0 °F 13.9 °F 15.1 °F 85% 30.40 in 10.0 mi ESE 3.5 mph - N/A   Clear
1:53 AM 15.1 °F - 10.9 °F 84% 30.40 in 10.0 mi Calm Calm - N/A   Clear
2:53 AM 12.9 °F 1.6 °F 10.0 °F 88% 30.38 in 10.0 mi ENE 8.1 mph - N/A   Clear
3:53 AM 12.9 °F 3.8 °F 10.9 °F 92% 30.34 in 10.0 mi ESE 5.8 mph - N/A   Clear
4:53 AM 12.0 °F 0.5 °F 9.0 °F 88% 30.33 in 10.0 mi East 8.1 mph - N/A   Clear
5:53 AM 10.9 °F -2.6 °F 8.1 °F 88% 30.32 in 10.0 mi East 10.4 mph - N/A   Clear
6:53 AM 12.9 °F -0.2 °F 10.0 °F 88% 30.30 in 10.0 mi East 10.4 mph - N/A   Clear
7:53 AM 17.1 °F 5.8 °F 14.0 °F 88% 30.27 in 10.0 mi ESE 9.2 mph - N/A   Clear
8:53 AM 25.0 °F 15.5 °F 19.0 °F 78% 30.22 in 10.0 mi SE 9.2 mph - N/A   Clear
9:53 AM 32.0 °F 23.6 °F 19.9 °F 61% 30.16 in 10.0 mi SE 10.4 mph - N/A   Clear
10:53 AM 39.9 °F 33.4 °F 21.0 °F 47% 30.10 in 10.0 mi ESE 10.4 mph 16.1 mph N/A   Clear
11:53 AM 46.9 °F - 18.0 °F 32% 30.04 in 10.0 mi SE 13.8 mph 19.6 mph N/A   Clear
12:53 PM 52.0 °F - 14.0 °F 22% 29.97 in 10.0 mi SSE 15.0 mph 24.2 mph N/A   Clear
1:53 PM 54.0 °F - 12.0 °F 19% 29.92 in 10.0 mi South 17.3 mph 23.0 mph N/A   Clear
2:53 PM 55.9 °F - 14.0 °F 19% 29.88 in 10.0 mi South 17.3 mph 23.0 mph N/A   Partly Cloudy
3:53 PM 57.0 °F - 14.0 °F 18% 29.84 in 10.0 mi SSE 15.0 mph - N/A   Scattered Clouds
4:53 PM 57.9 °F - 14.0 °F 18% 29.82 in 10.0 mi SSE 8.1 mph - N/A   Scattered Clouds
5:17 PM 55.4 °F - 24.8 °F 31% 29.77 in 6.0 mi West 27.6 mph 39.1 mph N/A   Haze
5:24 PM 53.6 °F - 28.4 °F 38% 29.77 in 8.0 mi West 28.8 mph 43.7 mph N/A   Overcast
5:53 PM 50.0 °F - 33.1 °F 52% 29.85 in 10.0 mi WNW 23.0 mph 28.8 mph 0.00 in Rain Light Rain
6:53 PM 48.0 °F - 37.0 °F 66% 29.82 in 10.0 mi SSW 8.1 mph - 0.01 in Rain Light Rain
7:53 PM 46.0 °F 44.8 °F 37.0 °F 71% 29.79 in 10.0 mi SSE 3.5 mph - 0.00 in   Overcast
8:53 PM 44.1 °F 40.1 °F 37.0 °F 76% 29.76 in 10.0 mi East 6.9 mph - N/A   Mostly Cloudy
9:53 PM 46.0 °F 41.9 °F 32.0 °F 58% 29.73 in 10.0 mi SW 8.1 mph - N/A   Clear
10:53 PM 45.0 °F 39.7 °F 28.9 °F 53% 29.68 in 10.0 mi SW 10.4 mph - N/A   Clear